Date,TemperatureHighF,TemperatureAvgF,TemperatureLowF,DewpointHighF,DewpointAvgF,DewpointLowF,HumidityHigh,HumidityAvg,HumidityLow,PressureMaxIn,PressureMinIn,WindSpeedMaxMPH,WindSpeedAvgMPH,GustSpeedMaxMPH,PrecipitationSumIn
2013-4-1,49.0,31.3,19.0,22.0,18.5,16.0,92,64,32,0.00,40.00,6,2,15,0.00
2013-4-2,53.0,37.6,25.0,22.0,18.1,14.0,81,48,25,0.00,40.00,7,3,15,0.00
2013-4-3,64.0,46.2,31.0,32.0,22.3,15.0,79,44,16,0.00,40.00,7,4,14,0.00
2013-4-4,57.0,42.1,30.0,31.0,26.2,16.0,90,57,30,0.00,40.00,7,4,15,0.00
2013-4-5,65.0,50.0,33.0,39.0,27.1,16.0,91,44,21,0.00,40.00,7,4,18,0.04
2013-4-6,55.0,45.4,36.0,35.0,27.6,22.0,91,54,31,0.00,40.00,7,4,16,0.04
2013-4-7,55.0,44.4,38.0,37.0,29.7,24.0,87,58,31,0.00,40.00,5,3,11,0.00
2013-4-8,45.0,30.1,10.0,35.0,25.8,5.0,97,84,62,0.00,40.00,8,3,26,0.00
2013-4-9,14.0,8.5,5.0,5.0,2.5,-2.0,80,76,67,0.00,40.00,7,5,26,0.00
2013-4-10,29.0,17.2,7.0,18.0,10.7,2.0,89,76,60,0.00,40.00,6,3,13,0.24
2013-4-11,40.0,25.3,8.0,28.0,18.0,4.0,88,74,61,0.00,40.00,7,4,23,0.06
2013-4-12,41.0,30.7,21.0,24.0,18.9,15.0,77,62,41,0.00,40.00,6,4,16,0.04
2013-4-13,50.0,35.5,20.0,37.0,25.6,15.0,96,70,35,0.00,40.00,8,4,19,0.06
2013-4-14,36.0,28.2,13.0,34.0,18.6,5.0,93,68,51,0.00,40.00,9,5,25,0.03
2013-4-15,31.0,19.8,10.0,17.0,8.9,2.0,88,64,35,0.00,40.00,6,4,17,0.00
2013-4-16,25.0,19.5,17.0,17.0,15.4,13.0,92,84,71,0.00,40.00,6,3,12,0.02
2013-4-17,30.0,20.5,12.0,19.0,14.7,7.0,89,79,62,0.00,40.00,5,3,12,0.16
2013-4-18,36.0,22.2,10.0,11.0,6.7,4.0,85,55,27,0.00,40.00,6,3,14,0.22
2013-4-19,45.0,31.3,20.0,27.0,22.2,11.0,97,72,41,0.00,40.00,6,4,15,0.09
2013-4-20,51.0,37.6,27.0,36.0,29.6,26.0,98,77,40,0.00,40.00,6,3,14,0.10
2013-4-21,45.0,33.0,27.0,35.0,24.9,-99.9,98,83,50,0.00,40.00,4,2,14,0.36
2013-4-22,28.0,21.9,11.0,26.0,14.9,4.0,96,75,52,0.00,40.00,5,4,15,0.21
2013-4-23,37.0,21.2,5.0,17.0,8.2,0.0,84,60,37,0.00,40.00,5,2,14,0.06
2013-4-24,38.0,28.9,17.0,21.0,16.4,8.0,84,61,42,0.00,40.00,7,4,23,0.03
2013-4-25,57.0,43.0,24.0,24.0,18.3,13.0,84,43,19,0.00,40.00,6,3,16,0.00
2013-4-26,62.0,49.4,36.0,23.0,20.0,15.0,52,32,20,0.00,40.00,5,3,14,0.00
2013-4-27,67.0,55.8,42.0,26.0,22.4,19.0,42,28,19,0.00,40.00,7,3,24,0.00
2013-4-28,63.0,50.2,39.0,42.0,29.8,20.0,98,50,28,0.00,40.00,6,3,15,0.17
2013-4-29,64.0,49.6,37.0,39.0,33.2,22.0,98,61,21,0.00,40.00,8,4,22,0.21
2013-4-30,48.0,35.4,26.0,30.0,24.1,14.0,95,67,32,0.00,40.00,6,3,14,0.00